Погода в Торопеце

Погода в Торопеце : погода сейчас, прогноз погоды и архив. Всё, что Вы хотите узнать о погоде в Торопеце!

Поиск расширенной информации на нашем сайте:

Другие новости

Новости СМИ2

Главная страница сайта

Новости сайта

03.07.2017

Напоминаем, что на нашем специализированном сайте Метеоцентр.Азия вы можете получить высокодетализированные автоматические прогнозы погоды по пунктам России, СНГ и мира в авиационном формате (включающие направление и скорость ветра, видимость, явления погоды, количество и форму облачности, нижнюю и верхнюю границу облачности).


Погода в Торопеце - сегодня

Время (UTC), дата Ветер
(°,м/с) 
Видим.   Явления Облачность Т
(°С)
Тd
(°С)
f(%) Тe
(°С)
Pmin
(гПа)
dP
(гПа)
Po
(мм)
O2
(г/м3)
Тmin Tmax R s Состояние
почвы
12 20.10.17 300 (СЗ) 20000 м  {туман}  4/4 600 м 
[Sc]
+6.1 +1.5 72 +6  1023.1  750  295           
15 20.10.17 330 (СЗ) 20000 м    3/3 600 м 
[Sc]
+3.5 +0.1 78 +4  1023.4  0.1  750  298           
18 20.10.17 020 (С) 20000 м    ясно 
-1.7 -2.2 96 -1  1024  0.1  750  304    +7.1       
21 20.10.17 тихо ()   2000 м  дымка  ясно 
-2.1 -2.3 99 -2  1023.9  750  305           
00 21.10.17 тихо ()   0500 м  туман  ?/?  
-3.4 -3.7 98 -3  1023.6  -0.5  750  306           
03 21.10.17 330 (СЗ) 2000 м  дымка{туман}  ясно 
-0.4 -0.6 99 -1  1023.2  -0.1  750  303  -3.6         
06 21.10.17 330 (СЗ) 4000 м  дымка{туман}  9/9 600 м 
[Sc]
+0.6 +0.5 99 +1  1023.2  0.1  750  301  -3.6        влажная 
09 21.10.17 040 (СВ) 20000 м    4/4 600 м 
[Sc]
+3.6 -1.8 68 +3  1022.9  -0.1  750  298           
12 21.10.17 350 (С) 20000 м    4/4 600 м 
[Sc]
+4.3 -3.3 58 +4  1021.7  -1.1  749  297           
15 21.10.17 010 (С) 20000 м    9/9 600 м 
[Sc]
+1.3 -3.5 70 +1  1022.3  0.3  749  301           
18 21.10.17 350 (С) 20000 м    6/6 600 м 
[Sc]
-0.2 -3.5 78 1022.5  0.1  749  302    +5       
21 21.10.17 330 (СЗ) 10 км    ясно 
-3.2 -4.3 92 -3  1023  0.2  749  306           
00 22.10.17 320 (СЗ) 4000 м  дымка  ясно 
-5.3 -5.8 96 -5  1023  -0.1  749  309           
03 22.10.17 тихо ()   4000 м  дымка  ясно 
-6.4 -6.8 97 -6  1022.9  -0.3  749  310  -6.7         
06 22.10.17 тихо ()   4000 м  дымка  ясно 
-2.3 -2.6 98 -2  1022.5  749  305  -7.3        замёрзшая 
09 22.10.17 250 (З) 10 км    3/3 600 м 
[Sc]
+2.2 -2 74 +2  1021.5  -0.6  749  299           
12 22.10.17 260 (З) 20000 м    9/9 600 м 
[Sc]
+3 -3.3 63 +2  1020.4  -0.9  748  298           
15 22.10.17 240 (ЮЗ) 20000 м    9/9 600 м 
[Sc]
+1.4 -3.4 70 +1  1019.5  -1.1  747  300           
18 22.10.17 240 (ЮЗ) 20000 м    9/9 600 м 
[Sc]
+0.8 -3.1 75 1019.3  -0.2  747  300    +3.2       
21 22.10.17 270 (З) 20000 м    9/9 600 м 
[Sc]
+0.6 -3.4 75 1019.1  -0.2  747  301           
00 23.10.17 270 (З) 20000 м    9/9 600 м 
[Sc]
+0 -3.3 78 +1  1019.6  0.4  747  301           
03 23.10.17 320 (СЗ) 4000 м  слаб. ливневой снег  9/9 600 м кучево-дожд. 
[Cb cap]
-0.7 -2.6 87 1020.4  0.7  748  302  -0.7    0.0     
06 23.10.17 030 (СВ) 20000 м  {ливн. осадки}  3/0 средняя 
[Ac trans]
-0.7 -3.2 83 -2  1021.7  1.3  749  303  -1.5    0.0    замёрзшая 
09 23.10.17 010 (С) 20000 м    3/3 600 м 
[Sc]
+0.8 -3.9 71 1023.1  1.5  750  302           
12 23.10.17 010 (С) 20000 м    3/3 600 м 
[Sc]
+2.7 -4.6 59 +2  1023.7  0.7  750  300           
Время (UTC), дата Ветер
(°,м/с) 
Видим.   Явления Облачность Т
(°С)
Тd
(°С)
f(%) Тe
(°С)
Pmin
(гПа)
dP
(гПа)
Po
(мм)
O2
(г/м3)
Тmin Tmax R s Состояние
почвы

Для получения пояснительной информации подведите курсор к названию столбца.

ПОГОДА в Торопеце - архив

Всё, что Вы хотите узнать о погоде в Торопеце - удобно и подробно!

Выберите нужную дату (начиная с 1 января 2015* года) и нажмите кнопку "Найти".
Будут отображены архивные сводки погоды по пункту Торопец, начиная с указанной даты.


Отображать данные в формате CSV (для использования в таблицах Excel)


Внимание! Наш архив погоды предназначен исключительно для личного некоммерческого использования в познавательных целях. Если Вам необходимы официальные справки о состоянии погоды (для производственных, юридических, коммерческих и т.п. целей), обращайтесь в органы Росгидромета.

*Примечание: данная дата относится к архиву по метеостанциям СССР (Россия, СНГ, Балтия).
Архив по метеостанциям Зарубежной Европы и Азии (кроме Китая) хранится 10 дней, по другим регионам земного шара (Китай, Африка, Америка, Австралия, Океания) - 1 день.

Торопец - район местоположения метеостанции


Название, широта, долгота, высота метеостанции:
Торопец 56.5°ш. 31.6°д. 187 м над ур. моря [Российская Федерация]

Дополнительная информация

В oтличие oт бoльшинства пoгoдных сайтoв мы публикуем пoдрoбную метеoинфoрмацию в детальнoм прoфессиoнальнoм фoрмате.

Характеристики температуры и влажнoсти вoздуха измеряются на высoте 2 м в тени вдали oт зданий и деревьев.
Скoрoсть ветра измеряется на высoте 10 м (на урoвне рoста челoвека скoрoсть ветра ниже в 1.5-2 раза). Если метеoстанция нахoдится в гoрoде или в лесу, тo скoрoсть ветра занижена на 2-4 м/с пo сравнению с oткрытым местoм. Скoрoсть ветра над акватoриями крупных рек и oзёр, а также на вершинах хoлмoв на 2-5 м/с выше, чем в oбычных услoвиях.
Атмoсфернoе давление в разных тoчках местнoсти мoжет значительнo oтличаться oт давления на метеoстанции, в зависимoсти oт услoвий рельефа (при пoдъёме на 10 м давление пoнижается примернo на 1 мм рт.ст.).